Location: Casco Millpond
(44.5581°N, 87.6111°W)
Time: 09:15:03
(UTC+00:00)

Cosmos 2369 Rocket - Pass Details

Date: 16 January 2026
Orbit: 826 x 853 km, 71.0° (Epoch: 9 February)

Event Time Altitude Azimuth Distance (km) Brightness Sun altitude
Rises 23:07:13 0° 328° (NNW) 3,428 5.5 -5.5°
Reaches altitude 10° 23:09:47 10° 322° (NW) 2,486 4.8 -5.9°
Maximum altitude 23:15:07 42° 253° (WSW) 1,192 3.7 -6.8°
Drops below altitude 10° 23:20:24 10° 184° (S) 2,457 5.0 -7.7°
Sets 23:22:56 0° 178° (S) 3,383 5.6 -8.1°
